Flag for Panama Weather past 2 weeks in Panama, Panama

Now
79 °F

Passing clouds.


Feels Like: 82 °F
Forecast: 80 / 86 °F
Wind: No wind

Location: Panama Airport

Current Time: Dec 25, 2014 at 5:53:24 AM

Latest Report: Dec 25, 2014 at 5:00 AM


Visibility: 6 mi

Pressure: 29.83 "Hg

Humidity: 84%

Dew point: 73 °F

Location of PanamaLocation

Historic Weather in Panama — Graph

°F

Panama temperature yesterday

Maximum temperature yesterday: 91 °F (at 11:00 AM)
Minimum temperature yesterday: 75 °F (at 2:00 AM)
Average temperature yesterday: 82 °F

Past Weeks' High & Low Weather Summary

 TemperatureHumidityPressure
High93 °F (Dec 18, 2:00 PM)100% (Dec 12, 5:00 AM)29.95 "Hg (Dec 12, 5:00 AM)
Low68 °F (Dec 14, 9:00 AM)25% (Dec 18, 5:00 AM)29.71 "Hg (Dec 22, 3:00 PM)
Average80 °F81%29.83 "Hg
* Reported Dec 10 5:00 AM — Dec 25 5:00 AM, Panama, Weather by CustomWeather, © 2014

Note: Actual official high and low records may vary slightly from our data, if they occured in-between our weather recording intervals... More about our weather records

Advertising

Panama weather history for previous 24 hours

 ConditionsComfort  
Time TempWeatherWind HumidityBarometerVisibility
5:00 AM
Dec 25
79 °FPassing clouds.No wind84%29.83 "Hg6 mi
4:00 AM77 °FPassing clouds.No wind89%29.80 "Hg5 mi
3:00 AM77 °FPassing clouds.No wind89%29.80 "Hg4 mi
2:00 AM77 °FPassing clouds.No wind94%29.83 "Hg4 mi
1:00 AM79 °FPassing clouds.No wind89%29.83 "Hg5 mi
12:00 AM79 °FPassing clouds.No wind89%29.83 "HgN/A
11:00 PM
Dec 24
81 °FPassing clouds.No wind84%29.83 "HgN/A
10:00 PM82 °FPassing clouds.No wind79%29.83 "HgN/A
9:00 PM82 °FPassing clouds.5 mph79%29.83 "HgN/A
8:00 PM82 °FPassing clouds.5 mph74%29.80 "HgN/A
7:00 PM84 °FPassing clouds.7 mph74%29.77 "HgN/A
6:00 PM86 °FScattered clouds.9 mph66%29.77 "HgN/A
5:00 PM88 °FScattered clouds.5 mph66%29.71 "HgN/A
3:00 PM91 °FScattered clouds.5 mph59%29.74 "Hg6 mi
2:00 PM90 °FScattered clouds.No wind67%29.77 "Hg6 mi
1:00 PM90 °FScattered clouds.No wind67%29.77 "Hg6 mi
12:00 PM90 °FScattered clouds.No wind63%29.80 "Hg6 mi
11:00 AM91 °FPassing clouds.No wind56%29.83 "Hg6 mi
10:00 AM86 °FPassing clouds.No wind66%29.80 "Hg6 mi
9:00 AM82 °FPassing clouds.No wind74%29.77 "Hg6 mi
8:00 AM77 °FPassing clouds.No wind89%29.77 "Hg6 mi
7:00 AM75 °FPassing clouds.No wind89%29.77 "Hg5 mi
6:00 AM75 °FPassing clouds.No wind89%29.77 "Hg6 mi
5:00 AM75 °FPassing clouds.No wind89%29.74 "HgN/A
Weather by CustomWeather, © 2014

See weather overviewHow to use our weather pages